Powrót do katalogu

STARLINK-3765

AktywnyŁącznośćVLEO
NORAD 52295·PAYLOAD·🇺🇸 United States

Wystrzelony Apr 21, 2022 z Cape Canaveral Space Force Station

Loading…

Następne Przeloty (najbliższe 24 godziny)

TLE

ŚwieżeSource: CelesTrak SupGP

Epoka: Sep 15, 2026, 01:52 UTC

1 52295C 22041AL  26258.07826389  .00835460  00000+0  23710-2 0  2586
2 52295  53.1581 306.8998 0001077  91.3154 347.4104 15.92217661    13

Śledź STARLINK-3765 w czasie rzeczywistym z AllMySat

Download on the App Store